| time (UTC) | temp F | wind direction | speed MPH | gust MPH | rain 1hr in | rain 24hr in | rain mn in | humidity % | barometer mb |
| 20260503235816 | 53 | 248 | 2.0 | 2.0 | 0.00 | 0.00 | 0.00 | 47 | 1009.5 |
| 20260503235313 | 53 | 237 | 2.0 | 2.0 | 0.00 | 0.00 | 0.00 | 46 | 1009.6 |
| 20260503234811 | 53 | 230 | 2.0 | 2.0 | 0.00 | 0.00 | 0.00 | 46 | 1009.5 |
| 20260503234308 | 53 | 248 | 3.0 | 3.0 | 0.00 | 0.00 | 0.00 | 46 | 1009.6 |
| 20260503233806 | 53 | 237 | 3.0 | 3.0 | 0.00 | 0.00 | 0.00 | 46 | 1009.7 |
| 20260503233301 | 54 | 212 | 4.0 | 5.0 | 0.00 | 0.00 | 0.00 | 47 | 1009.5 |
| 20260503232758 | 55 | 228 | 3.0 | 5.0 | 0.00 | 0.00 | 0.00 | 46 | 1009.6 |
| 20260503232256 | 55 | 219 | 4.0 | 5.0 | 0.00 | 0.00 | 0.00 | 44 | 1009.4 |
| 20260503231754 | 55 | 222 | 3.0 | 3.0 | 0.00 | 0.00 | 0.00 | 46 | 1009.3 |
| 20260503231250 | 55 | 260 | 1.0 | 2.0 | 0.00 | 0.00 | 0.00 | 43 | 1009.7 |
| 20260503230746 | 55 | 209 | 5.0 | 7.0 | 0.00 | 0.00 | 0.00 | 43 | 1009.6 |
| 20260503230244 | 55 | 265 | 0.0 | 1.0 | 0.00 | 0.00 | 0.00 | 44 | 1009.5 |
| 20260503225741 | 55 | 301 | 3.0 | 5.0 | 0.00 | 0.00 | 0.00 | 42 | 1009.3 |
| 20260503225241 | 55 | 307 | 5.0 | 7.0 | 0.00 | 0.00 | 0.00 | 42 | 1009.5 |
| 20260503224738 | 56 | 205 | 3.0 | 5.0 | 0.00 | 0.00 | 0.00 | 42 | 1009.4 |
| 20260503224236 | 56 | 263 | 1.0 | 1.0 | 0.00 | 0.00 | 0.00 | 42 | 1009.4 |
| 20260503223733 | 56 | 282 | 8.0 | 9.0 | 0.00 | 0.00 | 0.00 | 41 | 1009.4 |
| 20260503223231 | 57 | 237 | 3.0 | 3.0 | 0.00 | 0.00 | 0.00 | 41 | 1009.7 |
| 20260503222727 | 57 | 288 | 5.0 | 9.0 | 0.00 | 0.00 | 0.00 | 41 | 1009.5 |
| 20260503222225 | 56 | 242 | 1.0 | 2.0 | 0.00 | 0.00 | 0.00 | 43 | 1009.6 |
| 20260503221723 | 56 | 310 | 4.0 | 6.0 | 0.00 | 0.00 | 0.00 | 42 | 1009.9 |
| 20260503221221 | 56 | 315 | 7.0 | 8.0 | 0.00 | 0.00 | 0.00 | 42 | 1009.8 |
| 20260503220717 | 56 | 281 | 7.0 | 9.0 | 0.00 | 0.00 | 0.00 | 41 | 1009.9 |
| 20260503220214 | 55 | 269 | 1.0 | 1.0 | 0.00 | 0.00 | 0.00 | 43 | 1009.8 |
| 20260503215710 | 55 | 314 | 4.0 | 7.0 | 0.00 | 0.00 | 0.00 | 44 | 1010.0 |
| 20260503215208 | 55 | 261 | 4.0 | 6.0 | 0.00 | 0.00 | 0.00 | 43 | 1010.1 |
| 20260503214706 | 54 | 324 | 7.0 | 8.0 | 0.00 | 0.00 | 0.00 | 44 | 1009.8 |
| 20260503214201 | 54 | 264 | 1.0 | 1.0 | 0.00 | 0.00 | 0.00 | 45 | 1010.0 |
| 20260503213655 | 54 | 262 | 3.0 | 5.0 | 0.00 | 0.00 | 0.00 | 44 | 1010.1 |
| 20260503213152 | 55 | 278 | 4.0 | 6.0 | 0.00 | 0.00 | 0.00 | 43 | 1010.0 |
| 20260503212649 | 54 | 291 | 5.0 | 7.0 | 0.00 | 0.00 | 0.00 | 43 | 1010.0 |
| 20260503212146 | 54 | 224 | 1.0 | 1.0 | 0.00 | 0.00 | 0.00 | 45 | 1010.0 |
| 20260503211644 | 53 | 283 | 9.0 | 10.0 | 0.00 | 0.00 | 0.00 | 43 | 1010.1 |
| 20260503211139 | 53 | 292 | 2.0 | 3.0 | 0.00 | 0.00 | 0.00 | 43 | 1010.1 |
| 20260503210636 | 53 | 265 | 3.0 | 5.0 | 0.00 | 0.00 | 0.00 | 44 | 1010.1 |
| 20260503210132 | 53 | 284 | 3.0 | 5.0 | 0.00 | 0.00 | 0.00 | 42 | 1009.9 |
| 20260503205628 | 54 | 288 | 5.0 | 6.0 | 0.00 | 0.00 | 0.00 | 42 | 1010.0 |
| 20260503205125 | 54 | 295 | 11.0 | 13.0 | 0.00 | 0.00 | 0.00 | 42 | 1009.8 |
| 20260503204621 | 55 | 271 | 5.0 | 6.0 | 0.00 | 0.00 | 0.00 | 41 | 1009.7 |
| 20260503204119 | 55 | 305 | 5.0 | 6.0 | 0.00 | 0.00 | 0.00 | 41 | 1009.6 |
| 20260503203616 | 55 | 271 | 6.0 | 8.0 | 0.00 | 0.00 | 0.00 | 42 | 1009.8 |
| 20260503203114 | 55 | 289 | 5.0 | 7.0 | 0.00 | 0.00 | 0.00 | 40 | 1009.8 |
| 20260503202611 | 55 | 229 | 2.0 | 2.0 | 0.00 | 0.00 | 0.00 | 40 | 1009.9 |
| 20260503202108 | 55 | 265 | 4.0 | 6.0 | 0.00 | 0.00 | 0.00 | 40 | 1010.0 |
| 20260503201606 | 55 | 333 | 9.0 | 13.0 | 0.00 | 0.00 | 0.00 | 40 | 1009.9 |
| 20260503201103 | 55 | 301 | 2.0 | 2.0 | 0.00 | 0.00 | 0.00 | 41 | 1010.0 |
| 20260503200600 | 54 | 272 | 3.0 | 5.0 | 0.00 | 0.00 | 0.00 | 42 | 1009.8 |
| 20260503200056 | 54 | 299 | 2.0 | 2.0 | 0.00 | 0.00 | 0.00 | 40 | 1010.0 |
| 20260503195553 | 54 | 307 | 5.0 | 8.0 | 0.00 | 0.00 | 0.00 | 42 | 1010.0 |
| 20260503195050 | 54 | 222 | 7.0 | 10.0 | 0.00 | 0.00 | 0.00 | 39 | 1010.1 |
| 20260503194547 | 54 | 7 | 11.0 | 15.0 | 0.00 | 0.00 | 0.00 | 39 | 1010.1 |
| 20260503194047 | 53 | 287 | 4.0 | 6.0 | 0.00 | 0.00 | 0.00 | 41 | 1010.1 |
| 20260503193544 | 53 | 304 | 6.0 | 8.0 | 0.00 | 0.00 | 0.00 | 40 | 1010.2 |
| 20260503193039 | 54 | 308 | 8.0 | 10.0 | 0.00 | 0.00 | 0.00 | 38 | 1010.4 |
| 20260503192536 | 55 | 288 | 9.0 | 10.0 | 0.00 | 0.00 | 0.00 | 37 | 1010.5 |
| 20260503192032 | 54 | 265 | 6.0 | 8.0 | 0.00 | 0.00 | 0.00 | 39 | 1010.4 |
| 20260503191528 | 54 | 7 | 3.0 | 5.0 | 0.00 | 0.00 | 0.00 | 40 | 1010.4 |
| 20260503191025 | 53 | 317 | 3.0 | 5.0 | 0.00 | 0.00 | 0.00 | 40 | 1010.5 |
| 20260503190522 | 53 | 268 | 10.0 | 13.0 | 0.00 | 0.00 | 0.00 | 38 | 1010.6 |
| 20260503190019 | 54 | 345 | 7.0 | 10.0 | 0.00 | 0.00 | 0.00 | 38 | 1010.8 |
| 20260503185515 | 53 | 239 | 6.0 | 8.0 | 0.00 | 0.00 | 0.00 | 38 | 1010.8 |
| 20260503185015 | 54 | 310 | 5.0 | 6.0 | 0.00 | 0.00 | 0.00 | 37 | 1010.4 |
| 20260503184512 | 53 | 352 | 8.0 | 8.0 | 0.00 | 0.00 | 0.00 | 39 | 1010.7 |
| 20260503184008 | 54 | 278 | 7.0 | 13.0 | 0.00 | 0.00 | 0.00 | 38 | 1010.8 |
| 20260503183505 | 53 | 279 | 3.0 | 5.0 | 0.00 | 0.00 | 0.00 | 38 | 1010.8 |
| 20260503183002 | 53 | 266 | 4.0 | 6.0 | 0.00 | 0.00 | 0.00 | 38 | 1010.9 |
| 20260503182500 | 53 | 254 | 7.0 | 9.0 | 0.00 | 0.00 | 0.00 | 37 | 1011.3 |
| 20260503181958 | 53 | 276 | 7.0 | 9.0 | 0.00 | 0.00 | 0.00 | 38 | 1011.2 |
| 20260503181455 | 53 | 339 | 11.0 | 15.0 | 0.00 | 0.00 | 0.00 | 39 | 1011.0 |
| 20260503180950 | 52 | 269 | 4.0 | 6.0 | 0.00 | 0.00 | 0.00 | 40 | 1011.2 |
| 20260503180449 | 52 | 351 | 5.0 | 7.0 | 0.00 | 0.00 | 0.00 | 38 | 1011.4 |
| 20260503175945 | 52 | 333 | 4.0 | 6.0 | 0.00 | 0.00 | 0.00 | 41 | 1011.2 |
| 20260503175444 | 51 | 314 | 5.0 | 7.0 | 0.00 | 0.00 | 0.00 | 38 | 1011.2 |
| 20260503174939 | 51 | 291 | 6.0 | 8.0 | 0.00 | 0.00 | 0.00 | 40 | 1011.5 |
| 20260503174437 | 52 | 314 | 10.0 | 13.0 | 0.00 | 0.00 | 0.00 | 38 | 1011.6 |
| 20260503173932 | 51 | 4 | 11.0 | 15.0 | 0.00 | 0.00 | 0.00 | 39 | 1011.5 |
| 20260503173428 | 51 | 342 | 13.0 | 18.0 | 0.00 | 0.00 | 0.00 | 39 | 1011.5 |
| 20260503172925 | 50 | 277 | 7.0 | 10.0 | 0.00 | 0.00 | 0.00 | 38 | 1011.7 |
| 20260503172423 | 50 | 312 | 14.0 | 17.0 | 0.00 | 0.00 | 0.00 | 40 | 1011.8 |
| 20260503171919 | 51 | 347 | 10.0 | 15.0 | 0.00 | 0.00 | 0.00 | 38 | 1011.8 |
| 20260503171416 | 50 | 327 | 8.0 | 10.0 | 0.00 | 0.00 | 0.00 | 40 | 1011.6 |
| 20260503170913 | 50 | 276 | 4.0 | 8.0 | 0.00 | 0.00 | 0.00 | 40 | 1012.1 |
| 20260503170409 | 51 | 272 | 15.0 | 20.0 | 0.00 | 0.00 | 0.00 | 36 | 1012.1 |
| 20260503150801 | 47 | 340 | 7.0 | 9.0 | 0.00 | 0.00 | 0.00 | 41 | 1012.8 |
| 20260503150257 | 46 | 294 | 9.0 | 11.0 | 0.00 | 0.00 | 0.00 | 43 | 1012.8 |
| 20260503140222 | 46 | 306 | 1.0 | 3.0 | 0.00 | 0.00 | 0.00 | 46 | 1013.1 |
| 20260503131151 | 42 | 326 | 5.0 | 7.0 | 0.00 | 0.00 | 0.00 | 57 | 1013.1 |
| 20260503130649 | 42 | 287 | 2.0 | 2.0 | 0.00 | 0.00 | 0.00 | 55 | 1013.1 |
| 20260503130146 | 43 | 300 | 4.0 | 5.0 | 0.00 | 0.00 | 0.00 | 55 | 1013.1 |
| 20260503120112 | 41 | 298 | 5.0 | 7.0 | 0.00 | 0.00 | 0.00 | 68 | 1013.1 |
| 20260503110539 | 39 | 290 | 2.0 | 2.0 | 0.00 | 0.00 | 0.00 | 75 | 1012.9 |
| 20260503090426 | 38 | 276 | 1.0 | 2.0 | 0.00 | 0.00 | 0.00 | 76 | 1012.1 |
| 20260503081353 | 38 | 292 | 0.0 | 1.0 | 0.00 | 0.00 | 0.00 | 83 | 1012.1 |
| 20260503080849 | 37 | 192 | 3.0 | 3.0 | 0.00 | 0.00 | 0.00 | 84 | 1012.1 |
| 20260503080347 | 37 | 216 | 2.0 | 2.0 | 0.00 | 0.00 | 0.00 | 85 | 1012.3 |
| 20260503072823 | 36 | 283 | 0.0 | 0.0 | 0.00 | 0.00 | 0.00 | 86 | 1012.1 |
| 20260503072320 | 36 | 284 | 0.0 | 0.0 | 0.00 | 0.00 | 0.00 | 86 | 1012.1 |
| 20260503071816 | 36 | 283 | 0.0 | 0.0 | 0.00 | 0.00 | 0.00 | 86 | 1012.2 |
| 20260503071314 | 36 | 284 | 0.0 | 0.0 | 0.00 | 0.00 | 0.00 | 86 | 1012.1 |
| 20260503070810 | 36 | 284 | 0.0 | 0.0 | 0.00 | 0.00 | 0.00 | 86 | 1012.1 |
| 20260503070308 | 36 | 284 | 0.0 | 0.0 | 0.00 | 0.00 | 0.00 | 86 | 1012.1 |
| 20260503060232 | 37 | 216 | 1.0 | 1.0 | 0.00 | 0.00 | 0.00 | 84 | 1012.6 |
| 20260503054719 | 37 | 234 | 1.0 | 1.0 | 0.00 | 0.00 | 0.00 | 84 | 1012.6 |
| 20260503054216 | 37 | 251 | 0.0 | 0.0 | 0.00 | 0.00 | 0.00 | 83 | 1012.6 |
| 20260503053714 | 37 | 243 | 2.0 | 2.0 | 0.00 | 0.00 | 0.00 | 83 | 1012.8 |
| 20260503053213 | 37 | 256 | 1.0 | 1.0 | 0.00 | 0.00 | 0.00 | 83 | 1012.9 |
| 20260503052709 | 37 | 274 | 0.0 | 0.0 | 0.00 | 0.00 | 0.00 | 83 | 1012.8 |
| 20260503052206 | 37 | 290 | 0.0 | 0.0 | 0.00 | 0.00 | 0.00 | 83 | 1012.9 |
| 20260503051700 | 37 | 289 | 0.0 | 0.0 | 0.00 | 0.00 | 0.00 | 83 | 1013.0 |
| 20260503051158 | 36 | 287 | 0.0 | 0.0 | 0.00 | 0.00 | 0.00 | 83 | 1013.3 |
| 20260503050655 | 36 | 287 | 0.0 | 0.0 | 0.00 | 0.00 | 0.00 | 83 | 1013.2 |
| 20260503050152 | 36 | 287 | 0.0 | 0.0 | 0.00 | 0.00 | 0.00 | 83 | 1013.2 |
| 20260503045649 | 36 | 288 | 0.0 | 0.0 | 0.00 | 0.00 | 0.00 | 83 | 1013.3 |
| 20260503045146 | 36 | 290 | 0.0 | 0.0 | 0.00 | 0.00 | 0.00 | 83 | 1013.4 |
| 20260503044643 | 37 | 289 | 0.0 | 0.0 | 0.00 | 0.00 | 0.00 | 82 | 1013.4 |
| 20260503044140 | 37 | 250 | 1.0 | 1.0 | 0.00 | 0.00 | 0.00 | 81 | 1013.4 |
| 20260503043637 | 37 | 239 | 1.0 | 1.0 | 0.00 | 0.00 | 0.00 | 80 | 1013.3 |
| 20260503043134 | 37 | 238 | 1.0 | 1.0 | 0.00 | 0.00 | 0.00 | 80 | 1013.4 |
| 20260503042630 | 36 | 287 | 0.0 | 0.0 | 0.00 | 0.00 | 0.00 | 81 | 1013.3 |
| 20260503042126 | 36 | 312 | 1.0 | 1.0 | 0.00 | 0.00 | 0.00 | 81 | 1013.5 |
| 20260503041623 | 36 | 284 | 0.0 | 0.0 | 0.00 | 0.00 | 0.00 | 80 | 1013.4 |
| 20260503041121 | 36 | 283 | 1.0 | 1.0 | 0.00 | 0.00 | 0.00 | 80 | 1013.6 |
| 20260503040618 | 37 | 254 | 0.0 | 0.0 | 0.00 | 0.00 | 0.00 | 79 | 1013.6 |
| 20260503040115 | 37 | 255 | 0.0 | 0.0 | 0.00 | 0.00 | 0.00 | 79 | 1013.5 |
| 20260503035612 | 37 | 248 | 0.0 | 1.0 | 0.00 | 0.03 | 0.03 | 79 | 1013.3 |
| 20260503035110 | 37 | 275 | 0.0 | 1.0 | 0.00 | 0.03 | 0.03 | 78 | 1013.5 |
| 20260503034607 | 37 | 257 | 0.0 | 0.0 | 0.00 | 0.03 | 0.03 | 76 | 1013.5 |
| 20260503034104 | 38 | 287 | 0.0 | 0.0 | 0.00 | 0.03 | 0.03 | 76 | 1013.6 |
| 20260503033601 | 38 | 264 | 0.0 | 0.0 | 0.00 | 0.03 | 0.03 | 74 | 1013.6 |
| 20260503033059 | 38 | 297 | 0.0 | 0.0 | 0.00 | 0.03 | 0.03 | 74 | 1013.6 |
| 20260503032557 | 38 | 305 | 1.0 | 1.0 | 0.00 | 0.03 | 0.03 | 74 | 1013.5 |
| 20260503032055 | 39 | 268 | 0.0 | 0.0 | 0.00 | 0.03 | 0.03 | 72 | 1013.6 |
| 20260503031552 | 39 | 218 | 1.0 | 1.0 | 0.00 | 0.03 | 0.03 | 69 | 1013.4 |
| 20260503031049 | 39 | 229 | 1.0 | 1.0 | 0.00 | 0.03 | 0.03 | 69 | 1013.5 |
| 20260503030545 | 39 | 295 | 0.0 | 0.0 | 0.00 | 0.03 | 0.03 | 68 | 1013.6 |
| 20260503030043 | 39 | 325 | 1.0 | 1.0 | 0.00 | 0.03 | 0.03 | 68 | 1013.5 |
| 20260503025539 | 39 | 36 | 2.0 | 2.0 | 0.00 | 0.03 | 0.03 | 69 | 1013.5 |
| 20260503025037 | 40 | 12 | 2.0 | 2.0 | 0.00 | 0.03 | 0.03 | 67 | 1013.7 |
| 20260503024533 | 40 | 257 | 2.0 | 2.0 | 0.00 | 0.03 | 0.03 | 66 | 1013.6 |
| 20260503024030 | 40 | 286 | 0.0 | 1.0 | 0.00 | 0.03 | 0.03 | 66 | 1013.6 |
| 20260503023527 | 40 | 291 | 2.0 | 2.0 | 0.00 | 0.03 | 0.03 | 65 | 1013.5 |
| 20260503023025 | 40 | 274 | 0.0 | 0.0 | 0.00 | 0.03 | 0.03 | 66 | 1013.6 |
| 20260503022520 | 40 | 262 | 1.0 | 2.0 | 0.00 | 0.03 | 0.03 | 66 | 1013.5 |
| 20260503022015 | 40 | 266 | 0.0 | 1.0 | 0.00 | 0.03 | 0.03 | 66 | 1013.6 |
| 20260503021512 | 41 | 273 | 1.0 | 1.0 | 0.00 | 0.03 | 0.03 | 65 | 1013.5 |
| 20260503021009 | 41 | 285 | 2.0 | 2.0 | 0.00 | 0.03 | 0.03 | 65 | 1013.5 |
| 20260503020507 | 41 | 296 | 2.0 | 3.0 | 0.00 | 0.03 | 0.03 | 65 | 1013.8 |
| 20260503020003 | 41 | 293 | 3.0 | 3.0 | 0.00 | 0.03 | 0.03 | 64 | 1013.6 |
| 20260503015500 | 41 | 263 | 3.0 | 3.0 | 0.00 | 0.03 | 0.03 | 65 | 1013.6 |
| 20260503014956 | 42 | 244 | 2.0 | 2.0 | 0.00 | 0.03 | 0.03 | 65 | 1013.5 |
| 20260503014453 | 42 | 256 | 1.0 | 1.0 | 0.00 | 0.03 | 0.03 | 65 | 1013.6 |
| 20260503013951 | 42 | 261 | 1.0 | 1.0 | 0.00 | 0.03 | 0.03 | 64 | 1013.4 |
| 20260503013448 | 42 | 280 | 2.0 | 2.0 | 0.00 | 0.03 | 0.03 | 64 | 1013.3 |
| 20260503012945 | 42 | 335 | 4.0 | 5.0 | 0.00 | 0.03 | 0.03 | 63 | 1013.4 |
| 20260503012443 | 42 | 269 | 0.0 | 0.0 | 0.00 | 0.03 | 0.03 | 63 | 1013.3 |
| 20260503011938 | 42 | 322 | 2.0 | 2.0 | 0.00 | 0.03 | 0.03 | 62 | 1013.4 |
| 20260503011436 | 43 | 261 | 1.0 | 1.0 | 0.00 | 0.03 | 0.03 | 61 | 1013.2 |
| 20260503010933 | 43 | 284 | 1.0 | 1.0 | 0.00 | 0.03 | 0.03 | 61 | 1013.4 |
| 20260503010429 | 43 | 1 | 4.0 | 5.0 | 0.00 | 0.03 | 0.03 | 59 | 1013.1 |
| 20260503005927 | 43 | 319 | 3.0 | 3.0 | 0.00 | 0.03 | 0.03 | 59 | 1013.3 |
| 20260503005424 | 43 | 0 | 2.0 | 3.0 | 0.00 | 0.03 | 0.03 | 58 | 1013.2 |
| 20260503004920 | 43 | 291 | 3.0 | 3.0 | 0.00 | 0.03 | 0.03 | 57 | 1013.3 |
| 20260503004417 | 43 | 328 | 3.0 | 5.0 | 0.00 | 0.03 | 0.03 | 56 | 1013.1 |
| 20260503003915 | 44 | 278 | 1.0 | 1.0 | 0.00 | 0.03 | 0.03 | 56 | 1013.1 |
| 20260503003411 | 44 | 273 | 3.0 | 3.0 | 0.00 | 0.03 | 0.03 | 55 | 1012.9 |
| 20260503002909 | 44 | 311 | 1.0 | 2.0 | 0.00 | 0.03 | 0.03 | 55 | 1013.1 |
| 20260503002406 | 44 | 317 | 3.0 | 5.0 | 0.00 | 0.03 | 0.03 | 54 | 1012.6 |
| 20260503001902 | 44 | 288 | 5.0 | 6.0 | 0.00 | 0.03 | 0.03 | 54 | 1012.8 |
| 20260503001358 | 44 | 307 | 5.0 | 7.0 | 0.00 | 0.03 | 0.03 | 54 | 1012.6 |
| 20260503000856 | 44 | 310 | 2.0 | 2.0 | 0.00 | 0.03 | 0.03 | 54 | 1013.0 |
| 20260503000353 | 44 | 273 | 1.0 | 2.0 | 0.00 | 0.03 | 0.03 | 53 | 1013.0 |